Flag for Kazakhstan Weather past 2 weeks in Almaty, Kazakhstan

Now
82 °F

Scattered clouds.


Feels Like: 80 °F
Forecast: 50 / 83 °F
Wind: 8 mph from Northwest

Location: Almaty Airport

Current Time: Jul 31, 2014 at 3:57:24 PM

Latest Report: Jul 31, 2014 at 3:30 PM


Visibility: N/A

Pressure: 29.98 "Hg

Humidity: 14%

Dew point: 28 °F

Location of AlmatyLocation

Historic Weather in Almaty — Graph

°F

Almaty temperature yesterday

Maximum temperature yesterday: 81 °F (at 3:30 PM)
Minimum temperature yesterday: 52 °F (at 6:00 AM)
Average temperature yesterday: 67 °F

Past Weeks' High & Low Weather Summary

 TemperatureHumidityPressure
High97 °F (Jul 20, 2:30 PM)83% (Jul 28, 6:30 PM)30.01 "Hg (Jul 28, 6:30 PM)
Low52 °F (Jul 30, 6:00 AM)9% (Jul 20, 2:30 PM)29.53 "Hg (Jul 28, 3:30 AM)
Average75 °F31%29.79 "Hg
* Reported Jul 16 3:00 PM — Jul 31 3:00 PM, Almaty, Weather by CustomWeather, © 2014

Note: Actual official high and low records may vary slightly from our data, if they occured in-between our weather recording intervals... More about our weather records

Advertising

Almaty weather history for previous 24 hours

 ConditionsComfort  
Time TempWeatherWind HumidityBarometerVisibility
3:00 PM
Jul 31
82 °FScattered clouds.8 mph14%29.98 "HgN/A
2:30 PM81 °FScattered clouds.6 mph16%29.98 "HgN/A
2:00 PM81 °FScattered clouds.6 mph14%29.98 "HgN/A
1:30 PM81 °FScattered clouds.3 mph16%29.98 "HgN/A
1:00 PM79 °FScattered clouds.3 mph18%30.01 "HgN/A
12:30 PM79 °FScattered clouds.6 mph18%30.01 "HgN/A
12:00 PM77 °FScattered clouds.3 mph19%30.01 "HgN/A
11:30 AM75 °FScattered clouds.3 mph22%30.01 "HgN/A
11:00 AM75 °FScattered clouds.3 mph19%30.01 "HgN/A
10:30 AM73 °FScattered clouds.6 mph22%30.01 "HgN/A
10:00 AM72 °FScattered clouds.6 mph27%30.01 "HgN/A
9:30 AM70 °FScattered clouds.8 mph27%30.01 "HgN/A
9:00 AM68 °FPartly sunny.8 mph30%30.01 "HgN/A
8:30 AM66 °FPartly sunny.8 mph32%30.01 "HgN/A
8:00 AM64 °FPartly sunny.8 mph32%30.01 "HgN/A
7:30 AM64 °FPartly sunny.8 mph32%30.01 "HgN/A
7:00 AM63 °FPartly sunny.6 mph37%29.98 "HgN/A
6:30 AM61 °FPartly sunny.6 mph39%29.98 "HgN/A
6:00 AM61 °FPartly sunny.6 mph39%29.98 "HgN/A
5:30 AM63 °FPartly sunny.8 mph39%29.95 "HgN/A
5:00 AM63 °FPartly sunny.6 mph39%29.95 "HgN/A
4:30 AM61 °FPassing clouds.6 mph39%29.95 "HgN/A
4:00 AM61 °FPassing clouds.8 mph39%29.95 "HgN/A
3:30 AM61 °FPassing clouds.6 mph42%29.95 "HgN/A
3:00 AM63 °FPassing clouds.6 mph37%29.95 "HgN/A
2:30 AM63 °FPassing clouds.8 mph37%29.92 "HgN/A
2:00 AM61 °FPassing clouds.6 mph45%29.92 "HgN/A
1:30 AM61 °FPassing clouds.6 mph45%29.92 "HgN/A
1:00 AM59 °FPassing clouds.6 mph51%29.92 "HgN/A
12:30 AM59 °FPassing clouds.3 mph51%29.92 "HgN/A
11:30 PM
Jul 30
59 °FPassing clouds.1 mph51%29.92 "HgN/A
11:00 PM63 °FPassing clouds.No wind45%29.92 "HgN/A
10:30 PM63 °FPassing clouds.3 mph45%29.92 "HgN/A
10:00 PM64 °FPassing clouds.3 mph43%29.92 "HgN/A
9:30 PM64 °FPassing clouds.3 mph49%29.92 "HgN/A
9:00 PM68 °FPassing clouds.6 mph38%29.92 "HgN/A
8:30 PM72 °FPassing clouds.6 mph29%29.89 "HgN/A
8:00 PM73 °FPassing clouds.6 mph27%29.89 "HgN/A
7:30 PM77 °FPassing clouds.6 mph22%29.89 "HgN/A
7:00 PM79 °FScattered clouds.6 mph20%29.89 "HgN/A
6:30 PM79 °FScattered clouds.6 mph17%29.89 "HgN/A
6:00 PM81 °FScattered clouds.6 mph14%29.89 "HgN/A
5:30 PM81 °FPassing clouds.6 mph14%29.89 "HgN/A
5:00 PM81 °FPassing clouds.6 mph15%29.89 "HgN/A
4:30 PM81 °FPassing clouds.6 mph15%29.89 "HgN/A
4:00 PM79 °FPassing clouds.6 mph15%29.89 "HgN/A
3:30 PM81 °FPassing clouds.6 mph17%29.89 "HgN/A
3:00 PM79 °FPassing clouds.3 mph15%29.89 "HgN/A
Weather by CustomWeather, © 2014

See weather overviewHow to use our weather pages